User: anonymous   Login
Location: Unspecified
(0.0000°N, 0.0000°E)
Time: 07:14:02
(UTC+00:00)
Language:

LQSAT - Orbit

View from above orbital plane
View from above orbital plane
View from above satellite
View from above satellite

Ground track
Ground track

The orbit data is extracted from the following two-line orbital elements,

1 40958U 15057A   17177.89424471 +.00000005 +00000-0 +85915-5 0  9994
2 40958 097.9780 253.0443 0019297 038.1538 322.1021 14.72969400092559
Epoch (UTC): 26 June 2017 21:27:42
Eccentricity: 0.0019297
inclination: 97.9780°
perigee height: 638 km
apogee height: 665 km
right ascension of ascending node: 253.0443°
argument of perigee: 38.1538°
revolutions per day: 14.72969400
mean anomaly at epoch: 322.1021°
orbit number at epoch: 9255

The dashed part of the orbit path shows where the satellite is in the earth's shadow,  

DLR